PSLV R/B, 40720

Orbit data source: Space-Track

PSLV R/B, 40720 is space debris in SSO originally from a launch on Fri, 10 Jul 2015 UTC launched from the Sirharikota (SRI). Debris objects in space refer to the collection of defunct objects orbiting the Earth. Examples of debris include non-operational satellites, rocket bodies, and fragments generated from explosions, collisions, or faulty payload assembly.

Loading next visibility...
Identifier
40720, 2015-032F
Orbit
SSO
Country
Flag of ININ / IND
Related business
Manufacturer
VSSC/LPSC
Mission
Spacecraft
Bus & Motor
PS-4, Unknown motor
Mass
920 kg wet, 920 kg dry
Launch date (UTC)
2015-07-10 (11 years ago)
Launch vehicle
Unknown
Launch site
Sirharikota (SRI)
Object type
Payload
Rocket body
Debris
Shape & HBR
Cyl + Cyl + 2 Nozzle, 1.5 m
Radar Cross Section
3.727 m², Large (>1 m²)

Expand to show TLE details & history
Last TLE update: 16 hours ago

TLE from 16 hours ago
0 PSLV R/B
1 40720U 15032F   26207.87264675  .00001132  00000-0  13380-3 0  9991
2 40720  98.1953 179.2581 0003857 342.0473  18.0605 14.86735470597195
Epoch: 2026-07-26T20:56Z
TLE epoch observation values (Epoch: 2026-07-26T20:56:36.679Z)
Latitude
Longitude
-79.45907°
Altitude
608.603 km
Speed
7.556 km/s
True Right ascension
11h 57m 01s
True Declination
0° 00' 00"
Sunlit
Object was in daylight at epoch
Visualization orbit readout
Latitude
Unknown
Longitude
Unknown
Altitude
Unknown
Speed
Unknown
Apparent Right ascension
Unknown
Apparent Declination
Unknown
Sunlit
N/A
Visualization observer readout
Local Sidereal Time
02:21:16
Azimuth
Unknown
Elevation
Unknown
Doppler factor
Unknown
Orbital elements
Apogee altitude
607.883 km
Perigee altitude
602.496 km
Semi-major axis
6,983.326 km
Eccentricity
0.00039
Inclination
98.1953°
RAAN
179.2581°
Arg. of periapsis
342.0473°
True anomaly
18.07421°
Mean anomaly
18.0605°
Eccentric anomaly
18.06735°
Mean motion
3.7192 °/min
Orbital period
96.79 mins
BSTAR
0.0001338
Loading maneuver chart data...
Computing Atmospheric mass density...
Loading historical data...
Loading historical data...
Loading historical data...
Loading historical data...
Loading historical data...
Loading historical data...
Loading historical data...
Other satellites on launch #32 in the year 2015 (2015-07-10 UTC)

Documentation

Showing up to 5 results
|